Time,TemperatureF,DewpointF,PressureIn,WindDirection,WindDirectionDegrees,WindSpeedMPH,WindSpeedGustMPH,Humidity,HourlyPrecipIn,Conditions,Clouds,dailyrainin,SoftwareType,DateUTC
2013-01-04 00:00:00,42.7,30.2,30.45,NNE,17,0.0,0.0,61,0.00,,,0.00,Wunderground v.1.15,2013-01-04 06:00:00,
2013-01-04 00:10:00,42.3,30.2,30.44,NNE,17,0.0,0.0,62,0.00,,,0.00,Wunderground v.1.15,2013-01-04 06:10:00,
2013-01-04 00:15:00,42.1,30.0,30.45,NNE,17,0.0,0.0,62,0.00,,,0.00,Wunderground v.1.15,2013-01-04 06:15:00,
2013-01-04 00:25:00,41.6,29.9,30.44,NNE,17,0.0,0.0,63,0.00,,,0.00,Wunderground v.1.15,2013-01-04 06:25:00,
2013-01-04 00:30:00,41.5,29.8,30.44,NNE,17,0.0,0.0,63,0.00,,,0.00,Wunderground v.1.15,2013-01-04 06:30:00,
2013-01-04 00:40:00,41.2,29.9,30.44,NNE,17,0.0,0.0,64,0.00,,,0.00,Wunderground v.1.15,2013-01-04 06:40:00,
2013-01-04 00:50:00,41.3,30.4,30.44,NNE,17,0.0,0.0,65,0.00,,,0.00,Wunderground v.1.15,2013-01-04 06:50:00,
2013-01-04 01:00:00,41.4,30.5,30.44,NNE,17,0.0,0.0,65,0.00,,,0.00,Wunderground v.1.15,2013-01-04 07:00:00,
2013-01-04 01:10:00,41.6,30.7,30.44,NNE,17,0.0,0.0,65,0.00,,,0.00,Wunderground v.1.15,2013-01-04 07:10:00,
2013-01-04 01:15:00,41.6,30.7,30.44,NNE,17,0.0,0.0,65,0.00,,,0.00,Wunderground v.1.15,2013-01-04 07:15:00,
2013-01-04 01:25:00,41.7,31.2,30.44,NNE,17,0.0,0.0,66,0.00,,,0.00,Wunderground v.1.15,2013-01-04 07:25:00,
2013-01-04 01:30:00,41.7,31.2,30.44,NNE,17,0.0,0.0,66,0.00,,,0.00,Wunderground v.1.15,2013-01-04 07:30:00,
2013-01-04 01:40:00,41.8,30.9,30.43,NNE,13,1.0,3.0,65,0.00,,,0.00,Wunderground v.1.15,2013-01-04 07:40:00,
2013-01-04 01:50:00,41.6,30.7,30.43,NNE,12,1.0,1.0,65,0.00,,,0.00,Wunderground v.1.15,2013-01-04 07:50:00,
2013-01-04 02:00:00,41.4,31.3,30.43,North,11,1.0,1.0,67,0.00,,,0.00,Wunderground v.1.15,2013-01-04 08:00:00,
2013-01-04 02:10:00,41.4,31.6,30.44,North,11,0.0,0.0,68,0.00,,,0.00,Wunderground v.1.15,2013-01-04 08:10:00,
2013-01-04 02:15:00,41.4,31.6,30.44,North,11,0.0,0.0,68,0.00,,,0.00,Wunderground v.1.15,2013-01-04 08:15:00,
2013-01-04 02:25:00,41.5,32.1,30.46,North,11,0.0,0.0,69,0.00,,,0.00,Wunderground v.1.15,2013-01-04 08:25:00,
2013-01-04 02:35:00,41.5,32.4,30.47,North,360,0.0,0.0,70,0.00,,,0.00,Wunderground v.1.15,2013-01-04 08:35:00,
2013-01-04 02:45:00,41.2,32.5,30.46,North,360,0.0,0.0,71,0.00,,,0.00,Wunderground v.1.15,2013-01-04 08:45:00,
2013-01-04 02:55:00,41.0,32.7,30.46,North,360,0.0,0.0,72,0.00,,,0.00,Wunderground v.1.15,2013-01-04 08:55:00,
2013-01-04 03:00:00,40.9,32.6,30.46,North,355,0.0,0.0,72,0.00,,,0.00,Wunderground v.1.15,2013-01-04 09:00:00,
2013-01-04 03:10:00,40.6,32.6,30.47,North,355,0.0,0.0,73,0.00,,,0.00,Wunderground v.1.15,2013-01-04 09:10:00,
2013-01-04 03:20:00,40.6,32.3,30.48,North,355,0.0,0.0,72,0.00,,,0.00,Wunderground v.1.15,2013-01-04 09:20:00,
2013-01-04 03:30:00,40.7,32.4,30.48,North,355,0.0,0.0,72,0.00,,,0.00,Wunderground v.1.15,2013-01-04 09:30:00,
2013-01-04 03:40:00,40.7,32.0,30.48,North,355,0.0,0.0,71,0.00,,,0.00,Wunderground v.1.15,2013-01-04 09:40:00,
2013-01-04 03:50:00,40.6,31.6,30.47,North,355,0.0,0.0,70,0.00,,,0.00,Wunderground v.1.15,2013-01-04 09:50:00,
2013-01-04 04:00:00,40.6,31.6,30.47,North,355,0.0,0.0,70,0.00,,,0.00,Wunderground v.1.15,2013-01-04 10:00:00,
2013-01-04 04:10:00,40.5,31.5,30.48,North,355,0.0,0.0,70,0.00,,,0.00,Wunderground v.1.15,2013-01-04 10:10:00,
2013-01-04 04:20:00,40.5,31.5,30.48,North,355,0.0,0.0,70,0.00,,,0.00,Wunderground v.1.15,2013-01-04 10:20:00,
2013-01-04 04:25:00,40.5,31.5,30.48,North,355,0.0,0.0,70,0.00,,,0.00,Wunderground v.1.15,2013-01-04 10:25:00,
2013-01-04 04:35:00,40.4,31.0,30.49,North,355,0.0,0.0,69,0.00,,,0.00,Wunderground v.1.15,2013-01-04 10:35:00,
2013-01-04 04:45:00,40.4,31.4,30.50,North,355,0.0,0.0,70,0.00,,,0.00,Wunderground v.1.15,2013-01-04 10:45:00,
2013-01-04 04:55:00,40.5,31.8,30.50,WNW,290,0.0,5.0,71,0.00,,,0.00,Wunderground v.1.15,2013-01-04 10:55:00,
2013-01-04 05:00:00,40.5,32.2,30.50,West,271,1.0,1.0,72,0.00,,,0.00,Wunderground v.1.15,2013-01-04 11:00:00,
2013-01-04 05:10:00,40.5,32.5,30.50,West,270,0.0,0.0,73,0.00,,,0.00,Wunderground v.1.15,2013-01-04 11:10:00,
2013-01-04 05:15:00,40.5,32.5,30.51,West,267,0.0,3.0,73,0.00,,,0.00,Wunderground v.1.15,2013-01-04 11:15:00,
2013-01-04 05:25:00,40.4,32.1,30.51,SSW,207,2.0,2.0,72,0.00,,,0.00,Wunderground v.1.15,2013-01-04 11:25:00,
2013-01-04 05:35:00,40.3,32.3,30.50,SSW,206,0.0,1.0,73,0.00,,,0.00,Wunderground v.1.15,2013-01-04 11:35:00,
2013-01-04 05:45:00,40.5,32.9,30.50,SSW,194,2.0,3.0,74,0.00,,,0.00,Wunderground v.1.15,2013-01-04 11:45:00,
2013-01-04 05:55:00,40.6,33.6,30.50,SSW,194,0.0,2.0,76,0.00,,,0.00,Wunderground v.1.15,2013-01-04 11:55:00,
2013-01-04 06:00:00,40.6,34.0,30.50,SSW,196,0.0,0.0,77,0.00,,,0.00,Wunderground v.1.15,2013-01-04 12:00:00,
2013-01-04 06:10:00,40.5,33.9,30.49,SSW,196,0.0,0.0,77,0.00,,,0.00,Wunderground v.1.15,2013-01-04 12:10:00,
2013-01-04 06:15:00,40.5,33.9,30.49,SSW,196,0.0,0.0,77,0.00,,,0.00,Wunderground v.1.15,2013-01-04 12:15:00,
2013-01-04 06:25:00,40.4,34.1,30.50,SSW,196,0.0,0.0,78,0.00,,,0.00,Wunderground v.1.15,2013-01-04 12:25:00,
2013-01-04 06:30:00,40.4,34.4,30.50,SSW,196,0.0,0.0,79,0.00,,,0.00,Wunderground v.1.15,2013-01-04 12:30:00,
2013-01-04 06:40:00,40.3,34.3,30.50,SSW,197,0.0,0.0,79,0.00,,,0.00,Wunderground v.1.15,2013-01-04 12:40:00,
2013-01-04 06:45:00,40.3,34.3,30.50,SSW,200,0.0,0.0,79,0.00,,,0.00,Wunderground v.1.15,2013-01-04 12:45:00,
2013-01-04 06:55:00,40.3,34.6,30.50,SSW,212,0.0,0.0,80,0.00,,,0.00,Wunderground v.1.15,2013-01-04 12:55:00,
2013-01-04 07:00:00,40.2,34.2,30.50,SW,221,0.0,0.0,79,0.00,,,0.00,Wunderground v.1.15,2013-01-04 13:00:00,
2013-01-04 07:10:00,40.2,34.2,30.50,WSW,240,0.0,0.0,79,0.00,,,0.00,Wunderground v.1.15,2013-01-04 13:10:00,
2013-01-04 07:15:00,40.2,34.2,30.49,WSW,242,0.0,0.0,79,0.00,,,0.00,Wunderground v.1.15,2013-01-04 13:15:00,
2013-01-04 07:25:00,40.2,34.2,30.49,NW,308,0.0,0.0,79,0.00,,,0.00,Wunderground v.1.15,2013-01-04 13:25:00,
2013-01-04 07:30:00,40.2,34.2,30.49,NW,308,0.0,0.0,79,0.00,,,0.00,Wunderground v.1.15,2013-01-04 13:30:00,
2013-01-04 07:40:00,40.2,34.2,30.50,NW,307,0.0,0.0,79,0.00,,,0.00,Wunderground v.1.15,2013-01-04 13:40:00,
2013-01-04 07:45:00,40.2,34.2,30.50,NW,307,0.0,4.0,79,0.00,,,0.00,Wunderground v.1.15,2013-01-04 13:45:00,
2013-01-04 07:55:00,40.2,34.2,30.49,NW,307,0.0,0.0,79,0.00,,,0.00,Wunderground v.1.15,2013-01-04 13:55:00,
2013-01-04 08:00:00,40.3,34.3,30.50,NW,307,0.0,0.0,79,0.00,,,0.00,Wunderground v.1.15,2013-01-04 14:00:00,
2013-01-04 08:10:00,40.4,34.4,30.50,West,275,0.0,0.0,79,0.00,,,0.00,Wunderground v.1.15,2013-01-04 14:10:00,
2013-01-04 08:20:00,40.5,34.5,30.50,SW,216,1.0,2.0,79,0.00,,,0.00,Wunderground v.1.15,2013-01-04 14:20:00,
2013-01-04 08:25:00,40.6,34.6,30.51,SSW,209,1.0,2.0,79,0.00,,,0.00,Wunderground v.1.15,2013-01-04 14:25:00,
2013-01-04 08:35:00,40.7,34.7,30.51,SSW,196,0.0,4.0,79,0.00,,,0.00,Wunderground v.1.15,2013-01-04 14:35:00,
2013-01-04 08:40:00,40.8,34.8,30.52,SSW,196,0.0,0.0,79,0.00,,,0.00,Wunderground v.1.15,2013-01-04 14:40:00,
2013-01-04 08:50:00,40.8,34.8,30.51,SSW,196,0.0,0.0,79,0.00,,,0.00,Wunderground v.1.15,2013-01-04 14:50:00,
2013-01-04 09:00:00,41.0,35.0,30.52,SSW,196,0.0,0.0,79,0.00,,,0.00,Wunderground v.1.15,2013-01-04 15:00:00,
2013-01-04 09:10:00,41.2,34.9,30.53,SSW,195,0.0,0.0,78,0.00,,,0.00,Wunderground v.1.15,2013-01-04 15:10:00,
2013-01-04 09:15:00,41.3,35.0,30.52,SSW,195,0.0,0.0,78,0.00,,,0.00,Wunderground v.1.15,2013-01-04 15:15:00,
2013-01-04 09:25:00,41.4,35.1,30.52,SSW,205,0.0,0.0,78,0.00,,,0.00,Wunderground v.1.15,2013-01-04 15:25:00,
2013-01-04 09:30:00,41.4,35.1,30.52,SSW,205,0.0,0.0,78,0.00,,,0.00,Wunderground v.1.15,2013-01-04 15:30:00,
2013-01-04 09:40:00,41.5,35.2,30.52,SSW,205,0.0,0.0,78,0.00,,,0.00,Wunderground v.1.15,2013-01-04 15:40:00,
2013-01-04 09:50:00,41.7,35.3,30.53,SSW,205,0.0,0.0,78,0.00,,,0.00,Wunderground v.1.15,2013-01-04 15:50:00,
2013-01-04 10:00:00,42.2,35.5,30.53,SSW,205,0.0,0.0,77,0.00,,,0.00,Wunderground v.1.15,2013-01-04 16:00:00,
2013-01-04 10:10:00,42.5,35.8,30.53,SSW,205,0.0,0.0,77,0.00,,,0.00,Wunderground v.1.15,2013-01-04 16:10:00,
2013-01-04 10:20:00,42.9,35.5,30.53,SSW,205,0.0,0.0,75,0.00,,,0.00,Wunderground v.1.15,2013-01-04 16:20:00,
2013-01-04 10:30:00,43.3,35.9,30.53,SSW,204,0.0,0.0,75,0.00,,,0.00,Wunderground v.1.15,2013-01-04 16:30:00,
2013-01-04 10:40:00,43.7,36.0,30.53,SSW,204,0.0,0.0,74,0.00,,,0.00,Wunderground v.1.15,2013-01-04 16:40:00,
2013-01-04 10:50:00,44.2,35.4,30.53,SSW,204,0.0,0.0,71,0.00,,,0.00,Wunderground v.1.15,2013-01-04 16:50:00,
2013-01-04 11:00:00,44.7,35.1,30.52,SSW,204,0.0,0.0,69,0.00,,,0.00,Wunderground v.1.15,2013-01-04 17:00:00,
2013-01-04 11:10:00,45.1,35.2,30.51,SSW,204,0.0,0.0,68,0.00,,,0.00,Wunderground v.1.15,2013-01-04 17:10:00,
2013-01-04 11:20:00,45.6,35.3,30.51,SSW,204,0.0,0.0,67,0.00,,,0.00,Wunderground v.1.15,2013-01-04 17:20:00,
2013-01-04 11:25:00,46.0,35.3,30.51,SSW,204,0.0,0.0,66,0.00,,,0.00,Wunderground v.1.15,2013-01-04 17:25:00,
2013-01-04 11:35:00,46.1,35.4,30.51,SSW,204,0.0,0.0,66,0.00,,,0.00,Wunderground v.1.15,2013-01-04 17:35:00,
2013-01-04 11:45:00,46.7,35.2,30.50,ESE,121,0.0,1.0,64,0.00,,,0.00,Wunderground v.1.15,2013-01-04 17:45:00,
2013-01-04 11:50:00,46.9,35.0,30.50,SE,136,1.0,1.0,63,0.00,,,0.00,Wunderground v.1.15,2013-01-04 17:50:00,
2013-01-04 12:00:00,47.1,35.1,30.50,SE,135,1.0,6.0,63,0.00,,,0.00,Wunderground v.1.15,2013-01-04 18:00:00,
2013-01-04 12:10:00,47.2,34.4,30.49,SE,136,3.0,3.0,61,0.00,,,0.00,Wunderground v.1.15,2013-01-04 18:10:00,
2013-01-04 12:15:00,47.2,34.4,30.48,SE,136,0.0,3.0,61,0.00,,,0.00,Wunderground v.1.15,2013-01-04 18:15:00,
2013-01-04 12:25:00,47.6,35.6,30.47,SE,129,1.0,1.0,63,0.00,,,0.00,Wunderground v.1.15,2013-01-04 18:25:00,
2013-01-04 12:35:00,47.6,34.4,30.47,SE,129,0.0,0.0,60,0.00,,,0.00,Wunderground v.1.15,2013-01-04 18:35:00,
2013-01-04 12:40:00,47.6,34.4,30.46,SE,129,0.0,0.0,60,0.00,,,0.00,Wunderground v.1.15,2013-01-04 18:40:00,
2013-01-04 12:50:00,48.1,34.4,30.46,SE,134,1.0,1.0,59,0.00,,,0.00,Wunderground v.1.15,2013-01-04 18:50:00,
2013-01-04 12:55:00,47.9,34.3,30.46,SE,137,0.0,1.0,59,0.00,,,0.00,Wunderground v.1.15,2013-01-04 18:55:00,
2013-01-04 13:00:00,48.0,34.3,30.45,SE,137,0.0,4.0,59,0.00,,,0.00,Wunderground v.1.15,2013-01-04 19:00:00,
2013-01-04 13:10:00,48.5,33.9,30.45,SE,132,2.0,2.0,57,0.00,,,0.00,Wunderground v.1.15,2013-01-04 19:10:00,
2013-01-04 13:20:00,49.2,34.6,30.44,SE,128,1.0,1.0,57,0.00,,,0.00,Wunderground v.1.15,2013-01-04 19:20:00,
2013-01-04 13:25:00,49.4,34.3,30.43,ESE,120,0.0,1.0,56,0.00,,,0.00,Wunderground v.1.15,2013-01-04 19:25:00,
2013-01-04 13:35:00,49.4,34.8,30.43,NNE,19,0.0,1.0,57,0.00,,,0.00,Wunderground v.1.15,2013-01-04 19:35:00,
2013-01-04 13:45:00,50.5,35.4,30.42,ESE,115,1.0,6.0,56,0.00,,,0.00,Wunderground v.1.15,2013-01-04 19:45:00,
2013-01-04 13:55:00,50.6,35.0,30.42,ESE,107,2.0,4.0,55,0.00,,,0.00,Wunderground v.1.15,2013-01-04 19:55:00,
2013-01-04 14:00:00,50.9,34.4,30.41,ESE,113,1.0,1.0,53,0.00,,,0.00,Wunderground v.1.15,2013-01-04 20:00:00,
2013-01-04 14:10:00,51.9,34.8,30.41,SE,125,3.0,6.0,52,0.00,,,0.00,Wunderground v.1.15,2013-01-04 20:10:00,
2013-01-04 14:20:00,52.5,34.9,30.41,ESE,115,4.0,4.0,51,0.00,,,0.00,Wunderground v.1.15,2013-01-04 20:20:00,
2013-01-04 14:30:00,50.9,32.9,30.40,SSE,159,4.0,4.0,50,0.00,,,0.00,Wunderground v.1.15,2013-01-04 20:30:00,
2013-01-04 14:40:00,50.0,32.6,30.40,SSE,155,3.0,3.0,51,0.00,,,0.00,Wunderground v.1.15,2013-01-04 20:40:00,
2013-01-04 14:50:00,49.9,33.0,30.40,SSE,155,5.0,8.0,52,0.00,,,0.00,Wunderground v.1.15,2013-01-04 20:50:00,
2013-01-04 15:00:00,51.7,33.6,30.40,SSE,151,6.0,6.0,50,0.00,,,0.00,Wunderground v.1.15,2013-01-04 21:00:00,
2013-01-04 15:10:00,51.0,32.5,30.39,SE,138,4.0,7.0,49,0.00,,,0.00,Wunderground v.1.15,2013-01-04 21:10:00,
2013-01-04 15:20:00,50.1,32.2,30.39,SSE,163,4.0,4.0,50,0.00,,,0.00,Wunderground v.1.15,2013-01-04 21:20:00,
2013-01-04 15:30:00,52.1,33.0,30.39,East,96,3.0,7.0,48,0.00,,,0.00,Wunderground v.1.15,2013-01-04 21:30:00,
2013-01-04 15:40:00,52.3,32.6,30.39,East,90,4.0,6.0,47,0.00,,,0.00,Wunderground v.1.15,2013-01-04 21:40:00,
2013-01-04 15:45:00,52.1,32.5,30.38,East,92,5.0,6.0,47,0.00,,,0.00,Wunderground v.1.15,2013-01-04 21:45:00,
2013-01-04 15:55:00,52.2,32.0,30.39,ESE,115,2.0,8.0,46,0.00,,,0.00,Wunderground v.1.15,2013-01-04 21:55:00,
2013-01-04 16:00:00,51.7,31.6,30.39,East,87,4.0,4.0,46,0.00,,,0.00,Wunderground v.1.15,2013-01-04 22:00:00,
2013-01-04 16:10:00,50.9,31.9,30.39,ENE,74,2.0,2.0,48,0.00,,,0.00,Wunderground v.1.15,2013-01-04 22:10:00,
2013-01-04 16:15:00,50.7,31.7,30.39,East,98,3.0,3.0,48,0.00,,,0.00,Wunderground v.1.15,2013-01-04 22:15:00,
2013-01-04 16:25:00,50.2,31.8,30.39,East,100,1.0,3.0,49,0.00,,,0.00,Wunderground v.1.15,2013-01-04 22:25:00,
2013-01-04 16:35:00,49.7,31.3,30.39,East,96,3.0,6.0,49,0.00,,,0.00,Wunderground v.1.15,2013-01-04 22:35:00,
2013-01-04 16:45:00,49.5,32.1,30.38,East,99,4.0,4.0,51,0.00,,,0.00,Wunderground v.1.15,2013-01-04 22:45:00,
2013-01-04 16:55:00,49.3,31.4,30.38,ESE,121,4.0,7.0,50,0.00,,,0.00,Wunderground v.1.15,2013-01-04 22:55:00,
2013-01-04 17:00:00,49.1,31.2,30.39,East,100,5.0,5.0,50,0.00,,,0.00,Wunderground v.1.15,2013-01-04 23:00:00,
2013-01-04 17:10:00,48.4,31.1,30.38,East,92,4.0,4.0,51,0.00,,,0.00,Wunderground v.1.15,2013-01-04 23:10:00,
2013-01-04 17:15:00,48.1,30.8,30.38,East,101,4.0,4.0,51,0.00,,,0.00,Wunderground v.1.15,2013-01-04 23:15:00,
2013-01-04 17:25:00,47.8,31.5,30.38,East,87,3.0,6.0,53,0.00,,,0.00,Wunderground v.1.15,2013-01-04 23:25:00,
2013-01-04 17:35:00,47.6,31.8,30.39,ENE,69,3.0,5.0,54,0.00,,,0.00,Wunderground v.1.15,2013-01-04 23:35:00,
2013-01-04 17:45:00,47.5,32.1,30.39,ENE,69,3.0,4.0,55,0.00,,,0.00,Wunderground v.1.15,2013-01-04 23:45:00,
2013-01-04 17:55:00,47.4,32.0,30.39,ENE,77,3.0,3.0,55,0.00,,,0.00,Wunderground v.1.15,2013-01-04 23:55:00,
2013-01-04 18:00:00,47.3,31.9,30.39,East,80,3.0,3.0,55,0.00,,,0.00,Wunderground v.1.15,2013-01-05 00:00:00,
2013-01-04 18:10:00,47.2,32.3,30.39,ESE,111,2.0,5.0,56,0.00,,,0.00,Wunderground v.1.15,2013-01-05 00:10:00,
2013-01-04 18:20:00,47.2,32.3,30.39,East,91,3.0,3.0,56,0.00,,,0.00,Wunderground v.1.15,2013-01-05 00:20:00,
2013-01-04 18:30:00,47.0,32.1,30.38,East,89,3.0,3.0,56,0.00,,,0.00,Wunderground v.1.15,2013-01-05 00:30:00,
2013-01-04 18:40:00,46.9,32.0,30.38,East,98,1.0,5.0,56,0.00,,,0.00,Wunderground v.1.15,2013-01-05 00:40:00,
2013-01-04 18:45:00,46.8,31.9,30.39,East,96,3.0,5.0,56,0.00,,,0.00,Wunderground v.1.15,2013-01-05 00:45:00,
2013-01-04 18:55:00,46.7,32.3,30.39,East,97,3.0,4.0,57,0.00,,,0.00,Wunderground v.1.15,2013-01-05 00:55:00,
2013-01-04 19:00:00,46.7,32.3,30.38,East,80,3.0,3.0,57,0.00,,,0.00,Wunderground v.1.15,2013-01-05 01:00:00,
2013-01-04 19:10:00,46.6,32.2,30.38,ESE,105,2.0,4.0,57,0.00,,,0.00,Wunderground v.1.15,2013-01-05 01:10:00,
2013-01-04 19:20:00,46.5,32.5,30.39,ESE,104,3.0,5.0,58,0.00,,,0.00,Wunderground v.1.15,2013-01-05 01:20:00,
2013-01-04 19:25:00,46.5,32.5,30.39,ESE,112,3.0,5.0,58,0.00,,,0.00,Wunderground v.1.15,2013-01-05 01:25:00,
2013-01-04 19:35:00,46.4,32.4,30.39,ESE,112,4.0,6.0,58,0.00,,,0.00,Wunderground v.1.15,2013-01-05 01:35:00,
2013-01-04 19:45:00,46.4,32.4,30.39,ESE,115,4.0,5.0,58,0.00,,,0.00,Wunderground v.1.15,2013-01-05 01:45:00,
2013-01-04 19:50:00,46.4,32.8,30.39,SE,128,5.0,5.0,59,0.00,,,0.00,Wunderground v.1.15,2013-01-05 01:50:00,
2013-01-04 20:00:00,46.4,32.8,30.39,SE,132,4.0,4.0,59,0.00,,,0.00,Wunderground v.1.15,2013-01-05 02:00:00,
2013-01-04 20:10:00,46.3,32.7,30.39,SE,134,2.0,2.0,59,0.00,,,0.00,Wunderground v.1.15,2013-01-05 02:10:00,
2013-01-04 20:20:00,46.2,33.1,30.39,SE,138,3.0,3.0,60,0.00,,,0.00,Wunderground v.1.15,2013-01-05 02:20:00,
2013-01-04 20:30:00,46.1,33.4,30.39,SSE,147,5.0,6.0,61,0.00,,,0.00,Wunderground v.1.15,2013-01-05 02:30:00,
2013-01-04 20:40:00,46.0,32.9,30.39,SSE,165,5.0,6.0,60,0.00,,,0.00,Wunderground v.1.15,2013-01-05 02:40:00,
2013-01-04 20:45:00,46.0,32.9,30.39,SSE,165,5.0,6.0,60,0.00,,,0.00,Wunderground v.1.15,2013-01-05 02:45:00,
2013-01-04 20:55:00,46.0,33.3,30.39,South,180,3.0,4.0,61,0.00,,,0.00,Wunderground v.1.15,2013-01-05 02:55:00,
2013-01-04 21:00:00,46.0,33.3,30.38,South,175,2.0,5.0,61,0.00,,,0.00,Wunderground v.1.15,2013-01-05 03:00:00,
2013-01-04 21:10:00,45.9,33.2,30.38,South,175,2.0,4.0,61,0.00,,,0.00,Wunderground v.1.15,2013-01-05 03:10:00,
2013-01-04 21:15:00,45.9,33.6,30.38,South,173,3.0,4.0,62,0.00,,,0.00,Wunderground v.1.15,2013-01-05 03:15:00,
2013-01-04 21:25:00,45.8,33.5,30.39,South,176,4.0,5.0,62,0.00,,,0.00,Wunderground v.1.15,2013-01-05 03:25:00,
2013-01-04 21:35:00,45.8,33.9,30.39,South,174,2.0,3.0,63,0.00,,,0.00,Wunderground v.1.15,2013-01-05 03:35:00,
2013-01-04 21:40:00,45.7,33.8,30.39,South,184,1.0,3.0,63,0.00,,,0.00,Wunderground v.1.15,2013-01-05 03:40:00,
2013-01-04 21:50:00,45.8,34.7,30.39,SSW,202,2.0,2.0,65,0.00,,,0.00,Wunderground v.1.15,2013-01-05 03:50:00,
2013-01-04 22:00:00,45.7,36.5,30.39,South,184,3.0,3.0,70,0.00,,,0.00,Wunderground v.1.15,2013-01-05 04:00:00,
2013-01-04 22:10:00,45.2,36.7,30.39,SSW,211,2.0,2.0,72,0.00,,,0.00,Wunderground v.1.15,2013-01-05 04:10:00,
2013-01-04 22:15:00,45.0,36.5,30.39,SW,217,3.0,3.0,72,0.00,,,0.00,Wunderground v.1.15,2013-01-05 04:15:00,
2013-01-04 22:25:00,44.7,36.6,30.39,SW,218,1.0,3.0,73,0.00,,,0.00,Wunderground v.1.15,2013-01-05 04:25:00,
2013-01-04 22:35:00,44.6,36.5,30.38,SSW,213,3.0,7.0,73,0.00,,,0.00,Wunderground v.1.15,2013-01-05 04:35:00,
2013-01-04 22:40:00,44.5,36.7,30.38,SW,222,4.0,4.0,74,0.00,,,0.00,Wunderground v.1.15,2013-01-05 04:40:00,
2013-01-04 22:50:00,44.4,36.6,30.38,SW,217,3.0,3.0,74,0.00,,,0.00,Wunderground v.1.15,2013-01-05 04:50:00,
2013-01-04 23:00:00,44.3,36.5,30.38,SW,224,3.0,3.0,74,0.00,,,0.00,Wunderground v.1.15,2013-01-05 05:00:00,
2013-01-04 23:05:00,44.3,36.2,30.38,SW,219,3.0,3.0,73,0.00,,,0.00,Wunderground v.1.15,2013-01-05 05:05:00,
2013-01-04 23:15:00,44.2,36.1,30.38,SW,219,0.0,1.0,73,0.00,,,0.00,Wunderground v.1.15,2013-01-05 05:15:00,
2013-01-04 23:20:00,44.2,36.1,30.38,SW,232,0.0,0.0,73,0.00,,,0.00,Wunderground v.1.15,2013-01-05 05:20:00,
2013-01-04 23:30:00,44.2,35.7,30.38,SW,232,1.0,1.0,72,0.00,,,0.00,Wunderground v.1.15,2013-01-05 05:30:00,
2013-01-04 23:35:00,44.2,35.7,30.38,SW,229,2.0,2.0,72,0.00,,,0.00,Wunderground v.1.15,2013-01-05 05:35:00,
2013-01-04 23:45:00,44.2,35.7,30.38,SW,227,2.0,4.0,72,0.00,,,0.00,Wunderground v.1.15,2013-01-05 05:45:00,
2013-01-04 23:55:00,44.2,36.4,30.38,SSW,213,1.0,1.0,74,0.00,,,0.00,Wunderground v.1.15,2013-01-05 05:55:00,